When you browse on this site, cookies collect data to enhance your experience and personalize the content and advertising you see.
Visit our Privacy Policy to learn more. By continuing to use the site, you agree to this use of cookies and data.
  • In Slovakia
  • List of Countries
  • For 7 days
  • Water Temperature
  • Weather Map
  • Weather Widgets
  • user-avatar
    Login

    Hourly Weather Bagnica

    Today, 29 May, Friday

    Time Temperature Precipitation Wind Pressure Humidity
    00:00 +6°C° 0 mm 2 mps 753 mmHg 83%
    01:00 +6°C° 0 mm 2 mps 753 mmHg 83%
    02:00 +6°C° 0 mm 2 mps 753 mmHg 83%
    03:00 +5°C° 0 mm 2 mps 753 mmHg 83%
    04:00 +5°C° 0 mm 2 mps 753 mmHg 84%
    05:00 +7°C° 0 mm 2 mps 753 mmHg 74%
    06:00 +9°C° 0 mm 2 mps 753 mmHg 65%
    07:00 +12°C° 0 mm 2 mps 754 mmHg 56%
    08:00 +13°C° 0 mm 3 mps 754 mmHg 52%
    09:00 +14°C° 0 mm 3 mps 754 mmHg 49%
    10:00 +15°C° 0 mm 4 mps 754 mmHg 45%
    11:00 +15°C° 0 mm 4 mps 754 mmHg 44%
    12:00 +17°C° 0 mm 4 mps 753 mmHg 44%
    13:00 +16°C° 0 mm 5 mps 753 mmHg 43%
    14:00 +15°C° 0 mm 5 mps 753 mmHg 45%
    15:00 +15°C° 0 mm 5 mps 753 mmHg 46%
    16:00 +15°C° 0 mm 5 mps 752 mmHg 47%
    17:00 +13°C° 0 mm 4 mps 752 mmHg 53%
    18:00 +12°C° 0 mm 4 mps 752 mmHg 58%
    19:00 +11°C° 0 mm 3 mps 752 mmHg 64%
    20:00 +9°C° 0 mm 3 mps 752 mmHg 69%
    21:00 +8°C° 0 mm 3 mps 751 mmHg 74%
    22:00 +6°C° 0 mm 2 mps 751 mmHg 79%
    23:00 +6°C° 0 mm 2 mps 751 mmHg 82%

    Tomorrow, 30 May, Saturday

    Time Temperature Precipitation Wind Pressure Humidity
    00:00 +5°C° 0 mm 2 mps 751 mmHg 85%
    01:00 +5°C° 0 mm 2 mps 751 mmHg 88%
    02:00 +4°C° 0 mm 3 mps 751 mmHg 88%
    03:00 +4°C° 0 mm 3 mps 751 mmHg 88%
    04:00 +4°C° 0 mm 3 mps 750 mmHg 88%
    05:00 +6°C° 0 mm 4 mps 750 mmHg 81%
    06:00 +8°C° 0 mm 4 mps 751 mmHg 73%
    07:00 +9°C° 0 mm 5 mps 751 mmHg 66%
    08:00 +10°C° 0 mm 5 mps 750 mmHg 62%
    09:00 +12°C° 0 mm 5 mps 750 mmHg 58%
    10:00 +14°C° 0 mm 5 mps 750 mmHg 54%
    11:00 +14°C° 0 mm 6 mps 750 mmHg 54%
    12:00 +15°C° 0 mm 6 mps 750 mmHg 53%
    13:00 +15°C° 0 mm 6 mps 750 mmHg 52%
    14:00 +15°C° 0 mm 6 mps 749 mmHg 54%
    15:00 +14°C° 0 mm 6 mps 749 mmHg 56%
    16:00 +14°C° 0 mm 6 mps 749 mmHg 59%
    17:00 +13°C° 0 mm 5 mps 749 mmHg 63%
    18:00 +12°C° 0 mm 5 mps 749 mmHg 68%
    19:00 +11°C° 0 mm 4 mps 748 mmHg 73%
    20:00 +8°C° 0 mm 4 mps 748 mmHg 79%
    21:00 +7°C° 0 mm 4 mps 748 mmHg 85%
    22:00 +7°C° 0 mm 3 mps 748 mmHg 91%
    23:00 +7°C° 0 mm 3 mps 748 mmHg 92%

    Day after tomorrow, 31 May, Sunday

    Time Temperature Precipitation Wind Pressure Humidity
    00:00 +6°C° 0 mm 4 mps 747 mmHg 92%
    01:00 +7°C° 0 mm 4 mps 747 mmHg 92%
    02:00 +7°C° 0 mm 4 mps 747 mmHg 90%
    03:00 +8°C° 0 mm 4 mps 747 mmHg 87%
    04:00 +8°C° 0 mm 4 mps 747 mmHg 85%
    05:00 +9°C° 0 mm 5 mps 747 mmHg 79%
    06:00 +10°C° 0 mm 5 mps 747 mmHg 74%
    07:00 +11°C° 0 mm 6 mps 747 mmHg 69%
    08:00 +14°C° 0 mm 6 mps 747 mmHg 64%
    09:00 +15°C° 0 mm 7 mps 747 mmHg 59%
    10:00 +16°C° 0 mm 7 mps 747 mmHg 53%
    11:00 +17°C° 0 mm 7 mps 748 mmHg 51%
    12:00 +17°C° 0 mm 7 mps 748 mmHg 49%
    13:00 +18°C° 0 mm 7 mps 748 mmHg 47%
    14:00 +18°C° 0 mm 7 mps 748 mmHg 49%
    15:00 +17°C° 0 mm 7 mps 748 mmHg 50%
    16:00 +17°C° 0 mm 6 mps 748 mmHg 52%
    17:00 +16°C° 0 mm 6 mps 748 mmHg 57%
    18:00 +14°C° 0 mm 5 mps 748 mmHg 63%
    19:00 +13°C° 0 mm 4 mps 749 mmHg 68%
    20:00 +12°C° 0 mm 4 mps 749 mmHg 73%
    21:00 +10°C° 0 mm 3 mps 749 mmHg 78%
    22:00 +9°C° 0 mm 3 mps 749 mmHg 84%
    23:00 +8°C° 0 mm 3 mps 750 mmHg 84%

    1 June, Monday

    Time Temperature Precipitation Wind Pressure Humidity
    00:00 +8°C° 0 mm 3 mps 750 mmHg 85%
    01:00 +8°C° 0 mm 3 mps 750 mmHg 86%
    02:00 +8°C° 0 mm 2 mps 750 mmHg 87%
    03:00 +7°C° 0 mm 2 mps 750 mmHg 88%
    04:00 +7°C° 0 mm 2 mps 750 mmHg 89%
    05:00 +9°C° 0 mm 3 mps 750 mmHg 81%
    06:00 +11°C° 0 mm 3 mps 751 mmHg 74%
    07:00 +13°C° 0 mm 3 mps 751 mmHg 66%
    08:00 +16°C° 0 mm 3 mps 751 mmHg 60%
    09:00 +17°C° 0 mm 4 mps 751 mmHg 54%
    10:00 +19°C° 0 mm 4 mps 752 mmHg 48%
    11:00 +19°C° 0 mm 4 mps 752 mmHg 46%
    12:00 +20°C° 0 mm 4 mps 752 mmHg 45%
    13:00 +20°C° 0 mm 5 mps 752 mmHg 43%
    14:00 +20°C° 0 mm 5 mps 752 mmHg 44%
    15:00 +19°C° 0 mm 5 mps 752 mmHg 45%
    16:00 +19°C° 0 mm 5 mps 751 mmHg 47%
    17:00 +18°C° 0 mm 4 mps 751 mmHg 53%
    18:00 +17°C° 0 mm 4 mps 751 mmHg 60%
    19:00 +14°C° 0 mm 3 mps 751 mmHg 67%
    20:00 +13°C° 0 mm 3 mps 751 mmHg 72%
    21:00 +12°C° 0 mm 2 mps 751 mmHg 77%
    22:00 +9°C° 0 mm 2 mps 751 mmHg 82%
    23:00 +9°C° 0 mm 2 mps 751 mmHg 83%

    2 June, Tuesday

    Time Temperature Precipitation Wind Pressure Humidity
    00:00 +9°C° 0 mm 2 mps 751 mmHg 84%
    01:00 +8°C° 0 mm 2 mps 751 mmHg 85%
    02:00 +9°C° 0 mm 1 mps 751 mmHg 86%
    03:00 +9°C° 0 mm 1 mps 750 mmHg 87%
    04:00 +9°C° 0 mm 1 mps 750 mmHg 88%
    05:00 +11°C° 0 mm 1 mps 750 mmHg 80%
    06:00 +13°C° 0 mm 2 mps 750 mmHg 73%
    07:00 +15°C° 0 mm 2 mps 750 mmHg 66%
    08:00 +17°C° 0 mm 2 mps 750 mmHg 61%
    09:00 +18°C° 0 mm 2 mps 750 mmHg 55%
    10:00 +20°C° 0 mm 2 mps 750 mmHg 50%
    11:00 +21°C° 0 mm 2 mps 750 mmHg 49%
    12:00 +21°C° 0 mm 2 mps 750 mmHg 49%
    13:00 +23°C° 0 mm 2 mps 749 mmHg 48%
    14:00 +23°C° 0.1 mm 2 mps 749 mmHg 51%
    15:00 +21°C° 0.1 mm 2 mps 748 mmHg 54%
    16:00 +21°C° 0.1 mm 3 mps 748 mmHg 56%
    17:00 +20°C° 0.1 mm 2 mps 748 mmHg 63%
    18:00 +18°C° 0.1 mm 2 mps 747 mmHg 69%
    19:00 +17°C° 0.1 mm 2 mps 747 mmHg 75%
    20:00 +16°C° 0 mm 2 mps 747 mmHg 77%
    21:00 +14°C° 0 mm 2 mps 747 mmHg 80%
    22:00 +12°C° 0 mm 1 mps 746 mmHg 82%
    23:00 +12°C° 0 mm 1 mps 746 mmHg 82%

    3 June, Wednesday

    Time Temperature Precipitation Wind Pressure Humidity
    00:00 +12°C° 0 mm 1 mps 746 mmHg 83%
    01:00 +11°C° 0 mm 1 mps 745 mmHg 83%
    02:00 +11°C° 0 mm 1 mps 745 mmHg 82%
    03:00 +10°C° 0 mm 1 mps 745 mmHg 81%
    04:00 +10°C° 0 mm 1 mps 745 mmHg 81%
    05:00 +12°C° 0 mm 1 mps 745 mmHg 74%
    06:00 +14°C° 0 mm 1 mps 745 mmHg 68%
    07:00 +18°C° 0 mm 1 mps 745 mmHg 61%
    08:00 +19°C° 0 mm 1 mps 745 mmHg 56%
    09:00 +21°C° 0 mm 1 mps 745 mmHg 51%
    10:00 +23°C° 0 mm 1 mps 744 mmHg 46%
    11:00 +23°C° 0 mm 1 mps 744 mmHg 46%
    12:00 +23°C° 0 mm 2 mps 744 mmHg 46%
    13:00 +23°C° 0 mm 2 mps 743 mmHg 46%
    14:00 +23°C° 0.3 mm 2 mps 743 mmHg 51%
    15:00 +23°C° 0.3 mm 2 mps 742 mmHg 56%
    16:00 +21°C° 0.3 mm 2 mps 742 mmHg 61%
    17:00 +20°C° 0.5 mm 2 mps 741 mmHg 69%
    18:00 +19°C° 0.5 mm 2 mps 740 mmHg 76%
    19:00 +18°C° 0.5 mm 2 mps 740 mmHg 83%
    20:00 +16°C° 0 mm 2 mps 740 mmHg 85%
    21:00 +14°C° 0 mm 3 mps 740 mmHg 87%
    22:00 +13°C° 0 mm 3 mps 740 mmHg 90%
    23:00 +13°C° 0 mm 3 mps 739 mmHg 89%
    Show more